Weather History for Harlingen, TX

Change the Weather History Date:

Monday, January 28, 2013

  Actual Average Record
Temperature  
Mean Temperature 78 °F 61 °F  
Max Temperature 85 °F 72 °F 89 °F (1914)
Min Temperature 70 °F 51 °F 26 °F (1891)
Degree Days  
Heating Degree Days 0 6  
Month to date heating degree days 176 184  
Since 1 July heating degree days 289 432  
Cooling Degree Days 13 2  
Month to date cooling degree days 55 52  
Year to date cooling degree days 55 52  
Growing Degree Days 26 (Base 50)    
Moisture  
Dew Point 68 °F    
Average Humidity 74    
Maximum Humidity 93    
Minimum Humidity 55    
Precipitation  
Precipitation 0.00 in 0.05 in 9.00 in (1941)
Month to date precipitation 2.56 0.93  
Year to date precipitation 2.56 0.93  
Sea Level Pressure  
Sea Level Pressure 29.97 in    
Wind  
Wind Speed 22 mph (SSE)    
Max Wind Speed 32 mph    
Max Gust Speed 39 mph    
Visibility 10 miles    
Events      
T = Trace of Precipitation, MM = Missing Value Source: NWS Daily Summary

Daily Weather History Graph

Daily Weather History Graph

Search for Another Location

Airport:

Trip Planner

Search our weather history database for the weather conditions in past years. The results will help you decide how hot, cold, wet, or windy it might be!

Date:

Astronomy

Jan. 28, 2013 Rise Set
Actual Time 7:16 AM CST 6:10 PM CST
Civil Twilight 6:52 AM CST 6:35 PM CST
Nautical Twilight 6:24 AM CST 7:03 PM CST
Astronomical Twilight 5:57 AM CST 7:30 PM CST
Moon 7:50 PM CST 7:56 AM CST
Length of Visible Light 11h 42m
Length of Day
10h 54m
Full, 98% of the Moon is Illuminated
Jan 28
Full
Feb 3
Last Quarter
Feb 10
New
Feb 17
First Quarter
Feb 25
Full

Hourly Weather History & Observations

Time (CST) Temp. Heat Index Dew Point Humidity Pressure Visibility Wind Dir Wind Speed Gust Speed Precip Events Conditions
12:32 AM 71.6 °F - 69.8 °F 94% 30.01 in 10.0 mi SSE 11.5 mph - N/A   Overcast
12:52 AM 71.1 °F - 69.1 °F 93% 30.01 in 10.0 mi SSE 12.7 mph - N/A   Overcast
1:39 AM 71.6 °F - 69.8 °F 94% 30.01 in 10.0 mi SSE 16.1 mph - N/A   Overcast
1:52 AM 71.1 °F - 69.1 °F 93% 30.01 in 10.0 mi SSE 15.0 mph 21.9 mph N/A   Overcast
2:14 AM 71.6 °F - 69.8 °F 94% 30.01 in 10.0 mi SSE 17.3 mph 23.0 mph N/A   Overcast
2:52 AM 72.0 °F - 68.0 °F 87% 30.01 in 10.0 mi SSE 19.6 mph - N/A   Overcast
3:52 AM 71.1 °F - 66.9 °F 87% 30.00 in 10.0 mi SSE 15.0 mph - N/A   Overcast
4:15 AM 71.6 °F - 66.2 °F 83% 29.99 in 10.0 mi SSE 16.1 mph - N/A   Overcast
4:52 AM 71.1 °F - 66.9 °F 87% 29.99 in 10.0 mi SSE 17.3 mph - N/A   Overcast
5:52 AM 70.0 °F - 66.9 °F 90% 29.99 in 10.0 mi SSE 15.0 mph - N/A   Overcast
6:52 AM 70.0 °F - 66.9 °F 90% 30.00 in 10.0 mi SSE 18.4 mph - N/A   Overcast
7:50 AM 71.6 °F - 66.2 °F 83% 30.01 in 10.0 mi SSE 18.4 mph - N/A   Mostly Cloudy
7:52 AM 71.1 °F - 66.9 °F 87% 30.01 in 10.0 mi SSE 16.1 mph - N/A   Scattered Clouds
8:52 AM 73.0 °F - 66.9 °F 81% 30.02 in 10.0 mi SSE 19.6 mph - N/A   Scattered Clouds
8:59 AM 73.4 °F - 66.2 °F 78% 30.02 in 10.0 mi SSE 23.0 mph 28.8 mph N/A   Mostly Cloudy
9:08 AM 75.2 °F - 66.2 °F 73% 30.02 in 10.0 mi SSE 21.9 mph 31.1 mph N/A   Scattered Clouds
9:52 AM 77.0 °F - 66.9 °F 71% 30.03 in 10.0 mi SSE 25.3 mph 35.7 mph N/A   Scattered Clouds
10:52 AM 81.0 °F 83.0 °F 66.0 °F 60% 30.02 in 10.0 mi SSE 28.8 mph 34.5 mph N/A   Scattered Clouds
11:52 AM 82.9 °F 85.0 °F 66.0 °F 56% 30.00 in 10.0 mi SSE 27.6 mph 36.8 mph N/A   Scattered Clouds
12:52 PM 82.9 °F 84.6 °F 64.9 °F 54% 29.97 in 10.0 mi South 29.9 mph 35.7 mph N/A   Mostly Cloudy
1:52 PM 82.9 °F 85.0 °F 66.0 °F 56% 29.94 in 10.0 mi South 20.7 mph 35.7 mph N/A   Overcast
2:52 PM 82.0 °F 84.1 °F 66.0 °F 58% 29.92 in 10.0 mi SSE 26.5 mph 35.7 mph N/A   Mostly Cloudy
3:52 PM 82.0 °F 84.5 °F 66.9 °F 60% 29.91 in 10.0 mi South 21.9 mph 31.1 mph N/A   Mostly Cloudy
4:52 PM 79.0 °F - 68.0 °F 69% 29.90 in 10.0 mi SSE 23.0 mph 32.2 mph N/A   Mostly Cloudy
5:44 PM 77.0 °F - 68.0 °F 74% 29.90 in 10.0 mi SSE 23.0 mph 32.2 mph N/A   Mostly Cloudy
5:52 PM 75.9 °F - 68.0 °F 76% 29.90 in 10.0 mi SSE 24.2 mph 33.4 mph N/A   Mostly Cloudy
6:43 PM 73.4 °F - 68.0 °F 83% 29.90 in 10.0 mi SSE 23.0 mph 29.9 mph N/A   Scattered Clouds
6:52 PM 75.0 °F - 68.0 °F 79% 29.90 in 10.0 mi SSE 23.0 mph 29.9 mph N/A   Partly Cloudy
7:13 PM 73.4 °F - 68.0 °F 83% 29.90 in 10.0 mi SSE 21.9 mph 33.4 mph N/A   Mostly Cloudy
7:52 PM 73.0 °F - 69.1 °F 87% 29.91 in 10.0 mi SSE 25.3 mph 32.2 mph N/A   Overcast
8:52 PM 73.9 °F - 69.1 °F 85% 29.91 in 10.0 mi SSE 21.9 mph 28.8 mph N/A   Overcast
9:52 PM 73.0 °F - 69.1 °F 87% 29.91 in 10.0 mi SSE 24.2 mph 31.1 mph N/A   Overcast
10:52 PM 73.9 °F - 69.1 °F 85% 29.90 in 10.0 mi SSE 26.5 mph 33.4 mph N/A   Overcast
11:52 PM 73.9 °F - 69.1 °F 85% 29.90 in 10.0 mi South 25.3 mph 32.2 mph N/A   Overcast